Terminal Aerodrome Forecast
Issued by NWS Tulsa, OK

Home | Current Version | Previous Version | Text Only | Print | Product List | Glossary On
Versions: 1 2 3 4 5 6 7 8 9 10 11 12 13 14 15 16 17 18 19 20 21 22 23 24 25 26 27 28 29 30 31
809
FTPQ31 PGUM 142349
TAFGUM
TAF

TAF
PTSA 142349Z 1500/1524 07012G20KT P6SM -SHRA VCSH BKN018 BKN050
      OVC120
      TEMPO 1500/1503 3SM +SHRA BKN015 BKN040 OVC100
     FM150600 07011KT P6SM VCSH SCT018 BKN050 BKN120=

USA.gov is the U.S. government's official web portal to all federal, state and local government web resources and services.